New Castle, PA

4:29 PM EDT on September 23, 2017 (GMT -0400)
New Castle Municipal

Weather History for KUCP - September, 2013

Change the Weather History Date:

Tuesday, September 3, 2013

  Actual Average Record
Temperature  
Mean Temperature 60 °F -  
Max Temperature 64 °F 81 °F 99 °F (1953)
Min Temperature 54 °F 54 °F 38 °F (1946)
Degree Days  
Heating Degree Days 6    
Growing Degree Days 10 (Base 50)    
Moisture  
Dew Point 58 °F    
Average Humidity 87    
Maximum Humidity 100    
Minimum Humidity 70    
Precipitation  
Precipitation 0.00 in - - ()
Sea Level Pressure  
Sea Level Pressure 29.98 in    
Wind  
Wind Speed 2 mph (WNW)    
Max Wind Speed 10 mph    
Max Gust Speed 16 mph    
Visibility 10 miles    
Events      
Averages and records for this station are not official NWS values.
T = Trace of Precipitation, MM = Missing Value Source: NWS Daily Summary

Daily Weather History Graph

Daily Weather History Graph

Search for Another Location

Airport or City:

Trip Planner

Search our weather history database for the weather conditions in past years. The results will help you decide how hot, cold, wet, or windy it might be!

Date:

Astronomy

Sep. 03, 2013 Rise Set
Actual Time 6:50 AM EDT 7:50 PM EDT
Civil Twilight 6:22 AM EDT 8:18 PM EDT
Nautical Twilight 5:48 AM EDT 8:51 PM EDT
Astronomical Twilight 5:13 AM EDT 9:26 PM EDT
Moon 5:02 AM EDT (9/3) 6:37 PM EDT (9/3)
Length of Visible Light 13h 56m
Length of Day
13h 00m
Waning Crescent, 3% of the Moon is Illuminated
Sep 3
Waning Crescent
Sep 5
New
Sep 12
First Quarter
Sep 19
Full
Sep 26
Last Quarter

Hourly Weather History & Observations

Time (EDT) Temp. Dew Point Humidity Pressure Visibility Wind Dir Wind Speed Gust Speed Precip Events Conditions
12:27 AM 62.6 °F 62.6 °F 100% 29.88 in 9.0 mi Calm Calm - N/A   Overcast
12:56 AM 63.9 °F 61.9 °F 93% 29.90 in 10.0 mi Calm Calm - N/A   Overcast
1:20 AM 62.6 °F 62.6 °F 100% 29.88 in 10.0 mi Calm Calm - N/A   Mostly Cloudy
1:56 AM 62.6 °F 62.6 °F 100% 29.88 in 9.0 mi Calm Calm - N/A   Mostly Cloudy
2:56 AM 63.0 °F 61.9 °F 96% 29.91 in 9.0 mi Calm Calm - N/A   Overcast
3:12 AM 62.6 °F 60.8 °F 94% 29.88 in 8.0 mi Calm Calm - N/A   Mostly Cloudy
3:19 AM 62.6 °F 60.8 °F 94% 29.88 in 10.0 mi Calm Calm - N/A   Mostly Cloudy
3:56 AM 61.0 °F 59.9 °F 96% 29.91 in 10.0 mi Calm Calm - N/A   Scattered Clouds
4:56 AM 60.8 °F 60.8 °F 100% 29.89 in 10.0 mi Calm Calm - N/A   Mostly Cloudy
5:08 AM 60.8 °F 59.0 °F 94% 29.89 in 10.0 mi Calm Calm - N/A   Mostly Cloudy
5:21 AM 60.8 °F 59.0 °F 94% 29.90 in 10.0 mi Calm Calm - N/A   Mostly Cloudy
5:47 AM 60.8 °F 57.2 °F 88% 29.91 in 10.0 mi Calm Calm - N/A   Mostly Cloudy
5:56 AM 59.9 °F 59.0 °F 97% 29.94 in 10.0 mi Calm Calm - N/A   Mostly Cloudy
6:27 AM 60.8 °F 57.2 °F 88% 29.92 in 10.0 mi Calm Calm - N/A   Mostly Cloudy
6:35 AM 60.8 °F 57.2 °F 88% 29.92 in 10.0 mi Calm Calm - N/A   Overcast
6:56 AM 59.0 °F 57.9 °F 96% 29.96 in 10.0 mi Calm Calm - N/A   Overcast
7:56 AM 60.8 °F 57.2 °F 88% 29.95 in 10.0 mi Calm Calm - N/A   Mostly Cloudy
8:56 AM 61.9 °F 55.9 °F 81% 30.00 in 10.0 mi NW 3.5 mph - N/A   Overcast
9:56 AM 63.0 °F 54.9 °F 75% 30.01 in 10.0 mi Variable 4.6 mph - N/A   Overcast
10:56 AM 62.6 °F 53.6 °F 72% 29.99 in 10.0 mi NW 9.2 mph - N/A   Overcast
11:56 AM 63.9 °F 54.9 °F 72% 30.03 in 10.0 mi WNW 6.9 mph - N/A   Overcast
12:56 PM 63.9 °F 54.0 °F 70% 30.04 in 10.0 mi NW 10.4 mph 16.1 mph N/A   Mostly Cloudy
1:18 PM 64.4 °F 55.4 °F 73% 30.00 in 10.0 mi WNW 8.1 mph - N/A   Mostly Cloudy
1:56 PM 64.4 °F 55.4 °F 73% 30.00 in 10.0 mi West 9.2 mph - N/A   Overcast
2:56 PM 63.9 °F 55.9 °F 75% 30.04 in 10.0 mi West 6.9 mph - N/A   Overcast
3:56 PM 61.9 °F 56.8 °F 84% 30.04 in 10.0 mi WNW 6.9 mph - N/A   Overcast
4:09 PM 62.6 °F 57.2 °F 82% 30.01 in 10.0 mi West 9.2 mph - N/A   Mostly Cloudy
4:56 PM 62.6 °F 55.4 °F 77% 30.01 in 10.0 mi West 5.8 mph - N/A   Overcast
5:56 PM 63.9 °F 55.9 °F 75% 30.06 in 10.0 mi West 6.9 mph - N/A   Overcast
6:56 PM 63.0 °F 55.9 °F 78% 30.06 in 10.0 mi West 5.8 mph - N/A   Overcast
7:56 PM 61.0 °F 55.9 °F 83% 30.07 in 10.0 mi Calm Calm - N/A   Mostly Cloudy
8:56 PM 59.9 °F 55.9 °F 87% 30.09 in 10.0 mi Calm Calm - N/A   Overcast
9:56 PM 55.9 °F 54.9 °F 96% 30.11 in 10.0 mi Calm Calm - N/A   Clear
10:56 PM 55.9 °F 54.9 °F 96% 30.11 in 10.0 mi Calm Calm - N/A   Clear
11:56 PM 54.0 °F 52.9 °F 96% 30.12 in 6.0 mi Calm Calm - N/A   Clear